#timestamp,LO_Frequency,Hit,StdDev 
1649426415.1,286046998.7,N
1649426416.0,286046998.7,N
1649426435.8,286046999.2,N
1649426455.6,286046998.6,N
1649426475.5,286046999.9,N
1649426495.3,286047002.6,N
1649426515.2,286047002.5,N
1649426535.9,286047001.7,N
1649426555.7,286047003.5,N
1649426575.6,286047006.0,Y
1649426595.4,286047001.6,P
1649426615.2,286047002.6,P
1649426635.1,286047002.3,N
1649426636.0,286047002.3,N
1649426655.8,286047001.9,N
1649426675.7,286047000.6,N
1649426695.5,286047002.7,Y
1649426715.3,286046999.7,P
1649426735.2,286047000.6,N
1649426755.0,286047002.8,P
1649426755.9,286047002.8,N
1649426775.7,286047000.3,N
1649426795.6,286046999.7,N
1649426815.4,286046999.7,N
1649426835.3,286047000.1,N
1649426855.1,286046998.5,N
1649426856.0,286046998.5,N
1649426875.8,286046999.3,N
1649426895.7,286046998.7,N
1649426915.5,286046998.9,N
1649426935.3,286046999.2,N
1649426955.2,286046998.8,N
1649426975.0,286046998.6,N
1649426975.9,286046998.6,N
1649426995.8,286046999.1,N
1649427015.6,286047000.9,N
1649427035.4,286047000.8,N
1649427055.3,286046998.3,N
1649427075.1,286046998.7,N
1649427095.9,286047000.4,N
1649427115.7,286047000.7,N
1649427135.5,286046998.1,N
1649427155.4,286047000.2,N
1649427175.2,286046998.1,N
1649427195.0,286046997.7,N
1649427195.9,286046997.7,N
1649427215.8,286046996.5,N
1649427235.6,286046999.0,N
1649427255.5,286046999.9,N
1649427275.3,286047000.6,N
1649427295.1,286046998.3,N
1649427315.9,286047000.9,N
1649427335.7,286047000.4,N
1649427355.5,286047000.1,N
1649427375.4,286047001.1,N
1649427395.2,286047002.6,N
1649427415.1,286046998.6,N
1649427416.0,286046998.6,N
1649427435.8,286046999.7,N
1649427455.6,286047002.7,N
1649427475.5,286047000.1,N
1649427495.3,286047002.7,N
1649427515.1,286047001.2,N
1649427535.9,286046999.6,N
1649427555.7,286046999.2,N
1649427575.6,286047000.7,N
1649427595.4,286046998.3,N
1649427615.2,286047000.7,N
1649427635.1,286047002.8,N
1649427636.0,286047002.8,N
1649427655.8,286046999.7,N
1649427675.6,286047002.5,N
1649427695.5,286047002.8,N
1649427715.3,286047000.7,N
1649427735.2,286046998.2,N
1649427755.9,286047000.9,N
1649427775.7,286047001.4,N
1649427795.6,286047001.9,N
1649427815.4,286047002.6,N
1649427835.2,286047002.6,N
1649427855.1,286047002.9,N
1649427856.0,286047002.9,N
1649427875.8,286047001.9,N
1649427895.7,286047002.0,N
1649427915.5,286047002.0,N
1649427935.3,286047002.0,N
1649427955.2,286046999.9,N
1649427975.0,286047002.2,N
1649427975.9,286047002.2,N
1649427995.7,286047002.2,N
1649428015.6,286047004.4,Y
1649428035.4,286047000.6,P
1649428055.3,286047000.5,N
1649428075.1,286047000.7,N
1649428095.9,286047001.1,Y
1649428115.7,286046998.3,P
1649428135.5,286046999.3,N
1649428155.4,286046998.2,N
1649428175.2,286046999.3,N
1649428195.1,286046999.0,N
1649428196.0,286046999.0,N
1649428215.8,286047000.5,N
1649428235.6,286046999.9,N
1649428255.5,286047001.2,N
1649428275.3,286046999.4,N
1649428295.1,286046996.8,Y
1649428315.9,286046999.5,P
1649428335.7,286047000.4,P
1649428355.6,286047000.0,N
1649428375.4,286046998.1,Y
1649428395.2,286047000.5,P
1649428415.1,286047000.2,N
1649428416.0,286047000.2,N
1649428435.8,286046998.2,Y
1649428455.7,286046999.5,P
1649428475.5,286046997.4,P
1649428495.3,286046999.2,N
1649428515.2,286046997.1,N
1649428535.0,286046997.9,N
1649428535.9,286046997.9,N
1649428555.8,286046995.2,Y
1649428575.6,286046998.3,P
1649428595.4,286046998.5,P
1649428615.3,286046999.6,P
1649428635.1,286046998.3,Y
1649428655.9,286047002.8,P
1649428675.7,286047001.4,N
1649428695.5,286047001.5,N
1649428715.4,286047000.4,N
1649428735.2,286046999.8,N
1649428755.0,286047002.6,N
1649428755.9,286047002.6,N
1649428775.8,286047002.6,N
1649428795.6,286047002.6,N
1649428815.4,286046999.7,N
1649428835.3,286047000.6,N
1649428855.1,286047001.9,N
1649428875.9,286047003.9,N
1649428895.7,286047002.0,N
1649428915.5,286047000.4,N
1649428935.4,286047000.3,N
1649428955.2,286047000.1,N
1649428975.1,286047000.3,N
1649428976.0,286047000.3,N
1649428995.8,286047002.5,N
1649429015.6,286047001.9,N
1649429035.5,286047003.9,Y
1649429055.3,286047000.4,P
1649429075.2,286047000.5,N
1649429095.9,286047002.2,P
1649429115.7,286047001.4,N
1649429135.6,286047002.5,Y
1649429155.4,286047000.6,P
1649429175.2,286046998.9,P
1649429195.1,286046999.4,N
1649429196.0,286046999.4,N
1649429215.8,286046997.0,Y
1649429235.7,286046999.2,P
1649429255.5,286047001.2,P
1649429275.3,286046999.6,N
1649429295.2,286046996.5,Y
1649429315.0,286046996.8,P
1649429315.9,286046996.8,N
1649429335.8,286046997.1,N
1649429355.6,286046997.0,N
1649429375.5,286046995.9,Y
1649429395.3,286046998.9,P
1649429415.1,286046999.0,N
1649429435.9,286047000.0,N
1649429455.7,286047000.7,N
1649429475.5,286047000.0,N
1649429495.4,286047000.4,N
1649429515.2,286046998.6,N
1649429535.1,286047002.3,N
1649429536.0,286047002.3,N
1649429555.8,286047000.2,N
1649429575.6,286047002.8,N
1649429595.5,286047002.7,N
1649429615.3,286047001.4,N
1649429635.1,286047001.7,N
1649429655.9,286047003.1,N
1649429675.7,286047003.6,N
1649429695.6,286047002.9,N
1649429715.4,286047004.0,N
1649429735.2,286047003.4,N
1649429755.1,286047006.0,Y
1649429756.0,286047006.0,P
1649429775.8,286047001.8,N
1649429795.7,286047004.3,N
1649429815.5,286047003.6,N
1649429835.3,286047001.7,N
1649429855.2,286047002.4,N
1649429875.0,286047002.1,N
1649429875.9,286047002.1,N
1649429895.7,286047002.6,N
1649429915.6,286047001.9,N
1649429935.4,286047002.5,N
1649429955.3,286047002.0,N
1649429975.1,286047001.4,N
1649429976.0,286047001.4,N
1649429995.8,286047001.6,N
